This demonstration page uses our WeatherBlox Daily Observations layout. Learn more.

Hourly Observations for April 24, 2019

Temp ( °F °C ) Dew Point ( °F °C ) Humidity (%) Winds ( mph kmh ) Pressure ( in mb ) Visibility ( mi km ) Precip ( " mm )
12:15 am 00:15 Clear 47 8.3 39 3.7 73 73 SSW 3 6 30.01 1016 10 16.0934 0 0
12:35 am 00:35 Clear 45 7.3 36 2.1 70 70 SSE 6 9 30.01 1016 10 16.0934 0 0
12:55 am 00:55 Clear 48 8.9 33 0.7 57 57 S 3 6 29.99 1016 10 16.0934 0 0
1:15 am 01:15 Clear 48 9.1 33 0.3 54 54 Calm 29.98 1015 10 16.0934 0 0
1:35 am 01:35 Clear 47 8.1 33 0.5 59 59 SSW 3 6 29.99 1016 10 16.0934 0 0
1:55 am 01:55 Clear 44 6.9 34 0.9 66 66 Calm 30 1016 10 16.0934 0 0
2:15 am 02:15 Clear 46 7.9 33 0.3 59 59 S 3 6 29.99 1016 10 16.0934 0 0
2:35 am 02:35 Clear 46 7.9 32 0 58 58 SSW 3 6 29.98 1015 10 16.0934 0 0
2:55 am 02:55 Clear 46 7.5 33 0.6 62 62 SSW 3 6 29.98 1015 10 16.0934 0 0
3:15 am 03:15 Clear 46 7.9 33 0.7 61 61 SSW 5 7 29.96 1015 10 16.0934 0 0
3:35 am 03:35 Clear 44 6.5 34 1.2 69 69 SW 3 6 29.96 1015 10 16.0934 0 0
3:55 am 03:55 Clear 45 7 34 1.2 67 67 SSW 3 6 29.96 1015 10 16.0934 0 0
4:15 am 04:15 Clear 44 6.6 35 1.6 71 71 Calm 29.96 1015 10 16.0934 0 0
4:35 am 04:35 Clear 44 6.5 33 0.5 66 66 Calm 29.95 1014 10 16.0934 0 0
4:55 am 04:55 Clear 41 4.9 34 1.3 78 78 Calm 29.96 1015 10 16.0934 0 0
5:15 am 05:15 Clear 40 4.4 35 1.4 81 81 Calm 29.96 1015 10 16.0934 0 0
5:35 am 05:35 Clear 40 4.2 33 0.8 79 79 S 5 7 29.98 1015 10 16.0934 0 0
5:55 am 05:55 Clear 42 5.4 33 0.8 73 73 S 3 6 29.96 1015 10 16.0934 0 0
6:15 am 06:15 Clear 41 5.2 33 0.7 73 73 S 5 7 29.98 1015 10 16.0934 0 0
6:35 am 06:35 Clear 42 5.8 33 0.6 70 70 S 5 7 29.96 1015 10 16.0934 0 0
6:55 am 06:55 Sunny 40 4.4 33 0.6 77 77 SSE 6 9 29.98 1015 10 16.0934 0 0
7:15 am 07:15 Sunny 43 6 34 1 71 71 SSW 7 11 29.98 1015 10 16.0934 0 0
7:35 am 07:35 Sunny 44 6.4 35 1.4 71 71 S 5 7 29.99 1015 10 16.0934 0 0
7:55 am 07:55 Sunny 45 7.2 36 2.1 70 70 S 5 7 29.98 1015 10 16.0934 0 0
8:15 am 08:15 Sunny 47 8.3 38 3.1 70 70 S 6 9 29.96 1014 10 16.0934 0 0
8:35 am 08:35 Sunny 50 9.8 39 3.9 67 67 SSW 6 9 29.94 1014 10 16.0934 0 0
8:55 am 08:55 Sunny 52 11.3 38 3.5 59 59 S 7 11 29.93 1014 10 16.0934 0 0
9:15 am 09:15 Sunny 54 12.1 39 3.8 57 57 S 7 11 29.91 1013 10 16.0934 0 0
9:35 am 09:35 Sunny 57 13.9 41 5.1 56 56 SSW 8 13 29.9 1012 10 16.0934 0 0
9:55 am 09:55 Sunny 59 15.1 39 4.1 48 48 SSW 8 13 29.88 1012 10 16.0934 0 0
10:15 am 10:15 Sunny 62 16.5 39 3.8 43 43 SW 7 11 29.86 1011 10 16.0934 0 0
10:35 am 10:35 Sunny 64 17.5 39 3.8 40 40 SW 7 11 29.85 1011 10 16.0934 0 0
10:55 am 10:55 Sunny 65 18.2 38 3.5 38 38 SW 8 13 29.83 1010 10 16.0934 0 0
11:15 am 11:15 Sunny 66 19.1 40 4.3 38 38 SW 9 15 29.82 1010 10 16.0934 0 0
11:35 am 11:35 Sunny 67 19.6 41 4.8 38 38 WSW 9 15 29.82 1010 10 16.0934 0 0
11:55 am 11:55 Sunny 68 20 41 5.2 38 38 SW 6 9 29.82 1010 10 16.0934 0 0
12:15 pm 12:15 Sunny 69 20.7 43 6 38 38 W 8 13 29.8 1009 10 16.0934 0 0
12:35 pm 12:35 Sunny 70 20.9 42 5.7 37 37 SSW 3 6 29.8 1009 10 16.0934 0 0
12:55 pm 12:55 Sunny 70 21.1 41 4.9 35 35 Calm 29.79 1009 10 16.0934 0 0
1:15 pm 13:15 Sunny 70 21.1 41 5 35 35 E 3 6 29.78 1008 10 16.0934 0 0
1:35 pm 13:35 Sunny 71 21.5 41 4.9 34 34 Calm 29.77 1008 10 16.0934 0 0
1:55 pm 13:55 Sunny 71 21.6 43 5.9 36 36 Calm 29.75 1008 10 16.0934 0 0
2:15 pm 14:15 Sunny 72 22.2 42 5.7 34 34 Calm 29.75 1007 10 16.0934 0 0
2:35 pm 14:35 Sunny 73 22.5 44 6.7 36 36 Calm 29.74 1007 10 16.0934 0 0
2:55 pm 14:55 Sunny 73 22.5 42 5.5 33 33 Calm 29.74 1007 10 16.0934 0 0
3:15 pm 15:15 Sunny 73 22.9 43 6.1 34 34 Calm 29.72 1007 10 16.0934 0 0
3:35 pm 15:35 Sunny 74 23.1 42 5.7 33 33 Calm 29.71 1006 10 16.0934 0 0
3:55 pm 15:55 Sunny 74 23.5 43 5.9 32 32 Calm 29.7 1006 10 16.0934 0 0
4:15 pm 16:15 Sunny 75 23.8 44 6.6 33 33 NW 5 7 29.69 1005 10 16.0934 0 0
4:35 pm 16:35 Sunny 75 23.8 43 6 32 32 N 5 7 29.68 1005 10 16.0934 0 0
4:55 pm 16:55 Sunny 75 24 42 5.7 31 31 Calm 29.68 1005 10 16.0934 0 0
5:15 pm 17:15 Sunny 75 24 43 6 31 31 Calm 29.68 1005 10 16.0934 0 0
5:35 pm 17:35 Sunny 76 24.2 42 5.8 31 31 Calm 29.67 1005 10 16.0934 0 0
5:55 pm 17:55 Sunny 75 24 44 6.4 32 32 E 5 7 29.68 1005 10 16.0934 0 0
6:15 pm 18:15 Sunny 76 24.3 43 6 31 31 NW 5 7 29.66 1005 10 16.0934 0 0
6:35 pm 18:35 Sunny 75 23.7 43 6 32 32 Calm 29.67 1005 10 16.0934 0 0
6:55 pm 18:55 Sunny 74 23.6 44 6.6 34 34 N 8 13 29.67 1005 10 16.0934 0 0
7:15 pm 19:15 Sunny 74 23.1 44 6.9 35 35 NNE 7 11 29.67 1005 10 16.0934 0 0
7:35 pm 19:35 Sunny 72 22.1 45 7.4 39 39 NE 6 9 29.68 1005 10 16.0934 0 0
7:55 pm 19:55 Sunny 71 21.6 44 6.9 39 39 ENE 6 9 29.67 1005 10 16.0934 0 0
8:15 pm 20:15 Sunny 69 20.7 43 6.2 39 39 E 6 9 29.68 1005 10 16.0934 0 0
8:35 pm 20:35 Clear 66 18.9 43 6.3 44 44 E 7 11 29.7 1006 10 16.0934 0 0
8:55 pm 20:55 Clear 65 18.6 45 7 47 47 S 6 9 29.71 1006 10 16.0934 0 0
9:15 pm 21:15 Clear 62 16.4 45 7.2 55 55 SSE 5 7 29.74 1007 10 16.0934 0 0
9:35 pm 21:35 Clear 62 16.6 45 7.2 54 54 S 6 9 29.74 1007 10 16.0934 0 0
9:55 pm 21:55 Clear 63 17.1 44 6.7 51 51 S 9 15 29.73 1007 10 16.0934 0 0
10:15 pm 22:15 Clear 59 15.2 45 7.1 59 59 S 8 13 29.75 1007 10 16.0934 0 0
10:35 pm 22:35 Clear 60 15.3 44 6.6 56 56 S 9 15 29.75 1007 10 16.0934 0 0
10:55 pm 22:55 Clear 58 14.5 44 6.4 59 59 S 10 17 29.76 1008 10 16.0934 0 0
11:15 pm 23:15 Clear 59 15 42 5.5 53 53 S 12 19 29.75 1007 10 16.0934 0 0
11:35 pm 23:35 Clear 58 14.5 42 5.6 55 55 S 9 15 29.75 1008 10 16.0934 0 0
11:55 pm 23:55 Clear 57 14.1 42 5.4 56 56 S 12 19 29.76 1008 10 16.0934 0 0

Powered by AerisWeather